Home   Weather   Dawson Creek   Past weeks

Flag for Canada Past Weather in Dawson Creek, British Columbia, Canada — Yesterday and Last 2 Weeks

Now
48 °F

Mostly cloudy.


Feels Like: 40 °F
Forecast: 34 / 37 °F
Wind: 24 mph from Southwest

Location: Dawson Creek Airport

Current Time: Jan 16, 2017 at 3:13:14 pm

Latest Report: Jan 16, 2017 at 2:00 pm


Visibility: 9 mi

Pressure: 29.51 "Hg (27.21 "Hg at 668m altitude)

Humidity: 50%

Dew Point: 30 °F

Location of Dawson CreekLocation

Past Weather in Dawson Creek — Graph

°F

Dawson Creek Temperature Yesterday

Maximum temperature yesterday: 41 °F (at 1:00 pm)
Minimum temperature yesterday: 36 °F (at 9:00 am)
Average temperature yesterday: 39 °F

High & Low Weather Summary for the Past Weeks

 TemperatureHumidityPressure
High48 °F (Jan 16, 1:00 pm)100% (Jan 3, 10:23 pm)30.71 "Hg (Jan 3, 10:23 pm)
Low-13 °F (Jan 12, 1:00 am)50% (Jan 16, 1:00 pm)29.51 "Hg (Jan 16, 1:56 pm)
Average14 °F81%30.22 "Hg
* Reported Jan 1 2:04 pm — Jan 16 2:00 pm, Dawson Creek, Weather by CustomWeather, © 2017

Note: Actual official high and low records may vary slightly from our data, if they occured in-between our weather recording intervals... More about our weather records

Advertising

Dawson Creek Weather History for the Previous 24 Hours

Scroll right to see more
 ConditionsComfort  
Time TempWeatherWind HumidityBarometerVisibility
2:00 pm
Mon, Jan 16
48 °FMostly cloudy.24 mph50%29.51 "Hg9 mi
1:56 pm48 °FPartly sunny.26 mph50%29.51 "Hg9 mi
1:00 pm48 °FPassing clouds.15 mph50%29.53 "Hg9 mi
12:00 pm46 °FPassing clouds.17 mph53%29.56 "Hg9 mi
11:00 am45 °FSunny.17 mph61%29.57 "Hg9 mi
10:00 am46 °FClear.26 mph53%29.56 "Hg9 mi
9:00 am46 °FPassing clouds.20 mph57%29.58 "Hg9 mi
8:57 am46 °FPassing clouds.18 mph57%29.58 "Hg9 mi
8:00 am39 °FClear.7 mph70%29.61 "Hg9 mi
7:00 am39 °FPassing clouds.8 mph70%29.65 "Hg9 mi
6:00 am41 °FClear.10 mph66%29.67 "Hg9 mi
5:00 am41 °FOvercast.6 mph66%29.72 "Hg9 mi
4:00 am41 °FMostly cloudy.14 mph61%29.75 "Hg9 mi
3:00 am43 °FOvercast.22 mph53%29.76 "Hg9 mi
2:23 am43 °FOvercast.14 mph53%29.78 "Hg9 mi
2:00 am41 °FMostly cloudy.7 mph57%29.78 "Hg9 mi
1:00 am41 °FPassing clouds.12 mph57%29.80 "Hg9 mi
12:00 am41 °FOvercast.14 mph57%29.83 "Hg9 mi
11:00 pm
Sun, Jan 15
39 °FPassing clouds.13 mph61%29.85 "Hg9 mi
10:00 pm39 °FPassing clouds.13 mph61%29.85 "Hg9 mi
9:00 pm37 °FClear.10 mph65%29.86 "Hg9 mi
8:00 pm39 °FPassing clouds.17 mph61%29.85 "Hg9 mi
7:38 pm39 °FPassing clouds.23 mph61%29.85 "Hg9 mi
7:00 pm39 °FPassing clouds.12 mph61%29.85 "Hg9 mi
6:00 pm39 °FClear.14 mph61%29.87 "Hg9 mi
5:00 pm39 °FSunny.12 mph61%29.87 "Hg9 mi
4:00 pm39 °FSunny.18 mph56%29.84 "Hg9 mi
3:00 pm41 °FSunny.16 mph57%29.84 "Hg9 mi
Weather by CustomWeather, © 2017

See weather overviewHow to use our weather pages